Wind_Speed
25 24 24 25 24 25 25 24 23 22 22 22 22 23 23 22 22 22 22 21 21 21 21 21 21 22 22 22 22 22 23 24 24 24 24 24 23 24 23 23 23 24 24 24
26 26 26 27 26 25 26 26 26 25 25 24 24 24 24 24 24 23 23 22 22 23 23 24 24 24 24 24 25 25 25 25 25 25 26 26 26 26 26 27 26 26 25 25
26 26 27 27 26 26 27 27 27 28 27 27 27 26 26 25 25 25 25 24 24 24 25 26 26 26 26 27 27 27 27 27 27 27 27 28 28 28 28 28 28 28 28 28
27 27 28 27 27 27 27 28 28 29 29 28 28 27 26 26 27 26 26 26 26 26 26 27 28 28 28 28 28 28 28 29 29 29 29 29 30 30 30 30 29 29 29 29
29 29 29 28 28 28 28 29 28 29 29 29 28 27 27 27 27 26 27 27 26 27 27 27 27 29 30 29 29 30 29 29 29 30 30 30 31 30 30 30 30 30 30 30
31 31 30 30 29 28 28 30 28 29 29 29 28 27 27 27 27 27 28 28 28 28 28 28 28 29 29 30 30 30 30 30 30 30 30 30 30 30 30 30 31 31 31 30
32 32 32 32 31 29 30 30 29 29 29 28 29 29 29 28 28 28 29 29 29 29 29 29 30 30 31 31 32 32 32 31 31 31 31 30 30 31 31 31 32 32 32 32
33 33 33 33 32 31 31 31 31 30 30 30 30 30 30 30 30 30 30 30 30 30 30 30 31 32 32 33 33 33 33 33 33 32 31 31 31 32 32 33 33 33 33 33
33 34 34 33 33 32 32 32 31 31 30 31 31 31 31 31 31 31 31 31 31 31 32 32 32 33 33 33 33 34 34 35 35 34 33 32 33 33 34 34 34 34 33 33
33 33 33 33 32 32 32 32 31 31 31 31 31 31 32 32 32 32 32 32 32 32 32 33 33 33 33 33 34 35 35 35 35 35 34 34 34 34 35 35 35 35 35 34
32 32 32 32 32 32 32 32 32 32 32 32 32 33 32 33 33 33 33 33 33 33 33 33 33 33 33 33 34 35 35 34 33 33 34 34 34 34 35 35 36 36 36 36
32 32 33 33 33 33 33 33 33 33 34 34 33 34 34 34 34 34 34 34 34 34 34 34 34 34 34 34 34 34 34 34 34 33 34 34 35 35 35 35 35 35 36 37
31 31 32 32 32 32 32 33 33 34 34 34 34 34 35 35 35 35 36 35 35 35 34 34 34 34 35 35 34 34 34 35 35 35 35 35 35 35 35 35 35 35 35 35
30 31 31 31 32 32 32 32 33 34 34 34 34 34 35 35 35 35 35 36 35 35 34 34 34 34 34 34 34 34 34 35 35 35 36 36 35 35 35 35 35 35 35 35
30 30 31 32 32 32 32 32 33 33 34 34 34 34 34 34 34 34 34 34 34 34 34 34 34 34 34 33 34 33 34 34 35 35 35 36 35 35 35 34 35 35 35 35
28 29 30 30 30 30 30 30 31 32 32 32 32 32 32 33 32 33 33 33 33 33 33 33 33 34 33 33 33 33 34 35 35 35 35 35 35 35 34 34 35 35 35 35
28 28 28 29 28 28 28 28 29 29 30 31 31 32 31 31 32 32 32 32 32 33 33 33 33 34 33 33 34 34 34 35 35 35 34 35 34 33 33 33 34 34 34 34
28 28 28 28 27 27 27 27 27 27 28 29 30 30 31 31 31 31 31 31 31 32 32 33 33 34 34 34 34 35 35 34 34 35 34 33 33 32 32 32 32 32 32 32
27 27 27 27 27 27 27 27 27 26 27 27 28 28 28 29 29 30 30 30 31 31 31 32 32 32 33 34 35 35 35 34 33 33 32 32 31 31 31 31 31 31 32 32
24 24 25 25 26 25 25 25 25 25 25 26 26 26 26 27 27 28 30 30 31 31 31 31 30 30 31 31 31 32 32 32 31 31 30 30 30 30 30 31 31 32 32 31
22 22 22 22 23 23 23 23 23 24 24 25 25 25 26 26 27 28 29 29 29 29 28 28 29 29 29 29 29 29 29 30 30 29 28 29 29 29 30 30 30 31 31 30
20 21 21 21 22 22 22 22 23 23 24 24 24 25 25 26 26 26 26 27 26 27 27 26 26 26 27 27 27 27 28 27 27 27 27 27 27 28 28 28 29 29 29 29
20 20 20 20 20 21 22 22 22 23 23 23 24 24 24 24 24 24 24 24 24 25 25 25 25 25 25 25 25 25 25 24 24 25 25 25 26 26 26 26 27 27 27 26
19 18 18 19 19 20 21 21 21 21 21 21 22 22 22 22 22 23 23 23 22 23 23 23 24 24 24 24 24 24 23 23 23 22 23 23 24 24 25 25 25 26 26 25
17 17 17 17 17 18 18 18 19 19 19 20 20 21 21 21 21 22 21 21 21 22 22 22 22 22 22 22 22 22 21 21 21 21 21 21 22 23 23 24 24 24 24 24
15 14 15 15 16 16 16 16 17 17 18 19 19 20 20 20 20 20 20 20 20 20 20 20 21 21 21 21 20 19 19 20 20 20 21 22 22 22 22 23 23 24 23 23
13 13 14 14 15 15 15 15 15 16 17 17 18 18 18 18 19 19 19 19 19 19 19 19 20 21 20 19 18 18 19 19 20 20 21 21 21 21 21 21 21 21 20 20
Wind_Direction
245 246 250 253 255 257 258 259 263 268 273 277 278 279 280 282 284 283 282 280 278 277 277 277 279 282 283 285 287 286 287 287 287 288 289 291 293 292 293 295 297 297 296 297
251 251 252 252 253 256 259 261 264 269 272 275 276 277 277 279 280 279 277 276 276 276 276 276 279 282 283 285 287 288 288 287 287 288 288 289 292 293 292 293 295 296 296 297
254 254 255 255 254 255 259 262 265 269 271 273 275 276 276 276 277 276 273 271 272 274 275 276 278 281 283 284 286 287 287 287 287 288 289 289 289 290 290 290 292 293 294 295
253 255 255 257 257 258 260 263 266 269 271 272 274 276 276 276 275 274 272 270 270 272 275 276 277 279 281 282 283 285 286 287 288 289 289 289 289 289 290 290 291 291 291 293
254 256 258 258 259 260 262 265 267 269 271 271 272 274 275 275 276 274 272 272 271 273 276 277 278 279 280 281 283 284 285 286 287 289 289 289 290 288 288 290 290 291 292 293
255 255 258 261 261 262 265 265 265 267 269 270 272 273 274 275 275 274 272 273 274 274 276 277 278 279 280 282 283 284 284 286 286 287 288 289 290 288 288 289 290 291 292 293
256 257 259 259 261 263 263 265 267 268 269 270 271 271 272 274 274 274 274 275 275 275 276 277 278 279 279 281 283 284 283 285 286 287 286 288 290 290 291 290 290 290 291 291
256 257 259 260 262 264 264 265 266 267 268 269 270 271 271 272 273 273 275 276 275 274 275 277 278 278 279 281 283 284 284 285 287 287 286 286 288 290 290 290 290 291 291 291
257 257 259 262 264 265 264 264 265 266 267 269 270 271 272 273 274 274 274 275 275 275 276 276 277 278 279 280 282 283 284 286 286 287 286 288 289 290 290 289 290 290 290 289
258 259 259 261 262 262 262 262 263 265 266 268 269 271 272 272 273 274 275 274 274 275 276 277 277 277 278 280 281 283 283 286 287 287 286 288 289 290 290 290 290 290 290 290
259 260 260 259 260 261 262 262 262 263 265 267 268 270 270 271 272 273 273 273 274 276 276 276 277 278 279 281 282 284 284 285 288 289 288 288 289 290 291 292 291 290 290 290
259 260 261 261 262 262 262 263 264 264 265 266 268 270 270 271 272 272 273 273 274 276 277 277 278 279 280 281 283 284 284 284 286 287 288 290 290 291 291 292 291 291 290 290
260 261 262 263 264 264 264 265 265 266 267 267 268 270 271 272 272 272 272 274 275 275 276 277 279 279 280 281 281 282 283 284 285 286 287 288 289 290 291 292 292 291 291 291
262 262 263 264 266 266 267 266 266 266 266 267 268 269 271 272 272 271 272 273 274 275 276 276 278 279 280 280 281 282 284 286 287 286 287 288 289 290 290 291 293 293 293 293
263 263 263 264 264 265 267 266 265 265 265 266 268 269 270 271 271 271 272 272 273 275 276 276 277 278 279 280 282 283 284 286 288 288 289 290 290 290 291 292 293 294 293 293
264 264 264 265 267 268 268 267 266 265 265 266 267 268 270 271 271 272 272 272 272 274 276 277 278 279 279 281 282 283 284 286 287 289 289 290 290 290 290 291 292 294 295 294
265 266 267 267 267 268 268 269 268 267 267 267 268 269 270 271 271 272 273 273 273 274 276 278 279 279 279 280 282 283 285 287 288 289 289 289 290 291 292 292 292 294 296 296
265 265 266 267 269 271 271 271 270 268 267 267 269 269 270 272 272 273 274 274 275 275 277 279 280 280 280 281 282 285 287 288 289 289 291 293 293 292 292 293 294 296 296 297
265 266 266 266 268 270 271 272 271 270 269 269 270 270 271 271 272 273 274 275 276 276 278 280 281 281 281 282 284 285 286 288 290 290 292 293 293 292 292 292 294 296 297 298
265 267 267 266 267 269 269 270 271 271 271 271 271 271 271 272 272 273 275 276 277 279 281 282 282 282 282 283 285 287 287 288 289 291 292 292 292 292 292 293 294 296 297 298
267 268 269 270 270 269 270 269 271 272 272 272 271 271 272 273 274 275 277 276 277 278 280 280 281 281 282 284 285 287 289 290 291 292 293 292 292 293 294 295 296 296 297 298
268 268 269 270 270 269 269 269 270 273 274 274 274 275 276 277 278 278 278 277 278 279 280 281 281 282 283 285 287 288 290 291 291 292 293 293 294 295 297 297 298 298 299 298
267 267 268 270 270 271 272 272 272 273 273 275 276 276 277 279 279 280 280 280 280 281 282 282 283 284 285 286 287 289 292 293 294 295 295 296 297 297 298 298 299 300 300 300
267 266 269 271 273 274 274 274 274 275 275 275 275 277 279 280 280 281 281 282 282 283 284 284 285 285 287 287 288 290 291 294 297 299 299 299 301 302 302 302 302 302 302 301
269 269 271 272 273 275 277 276 273 274 276 277 277 279 280 279 280 280 281 282 283 284 285 286 286 286 287 288 290 291 293 296 298 299 300 302 304 304 304 304 305 305 304 303
271 270 270 271 273 274 275 275 275 276 277 279 282 283 282 281 280 281 283 284 284 285 286 286 287 287 287 290 291 293 296 298 298 298 301 304 305 305 305 306 305 305 307 307
270 270 271 272 273 274 274 276 277 279 280 282 285 287 284 283 283 284 285 286 287 287 288 288 289 288 287 289 291 295 297 299 299 301 304 307 308 309 310 310 309 310 311 311
Height
5884 5885 5886 5887 5889 5890 5891 5892 5893 5893 5893 5892 5891 5890 5890 5889 5888 5887 5886 5885 5885 5884 5883 5883 5882 5881 5880 5878 5877 5875 5873 5871 5869 5867 5865 5862 5860 5858 5856 5853 5851 5849 5846 5844
5877 5878 5879 5880 5882 5883 5884 5885 5886 5886 5886 5886 5884 5884 5883 5883 5882 5881 5880 5880 5879 5878 5877 5877 5876 5875 5873 5872 5870 5868 5866 5864 5862 5860 5858 5856 5854 5851 5849 5847 5844 5842 5839 5837
5871 5872 5872 5873 5876 5877 5877 5878 5879 5879 5879 5878 5877 5877 5877 5876 5875 5874 5874 5873 5872 5872 5871 5870 5869 5868 5866 5865 5863 5861 5859 5858 5855 5853 5851 5849 5846 5844 5842 5839 5837 5835 5832 5830
5863 5865 5865 5869 5868 5869 5870 5870 5871 5871 5871 5870 5870 5869 5869 5868 5868 5867 5866 5866 5865 5865 5864 5863 5862 5861 5859 5857 5856 5854 5852 5850 5848 5846 5843 5841 5839 5836 5834 5831 5829 5827 5825 5822
5856 5857 5857 5860 5860 5861 5862 5862 5863 5863 5863 5862 5862 5862 5861 5861 5860 5860 5859 5858 5858 5857 5856 5855 5854 5853 5852 5850 5848 5846 5844 5842 5840 5838 5835 5833 5830 5828 5825 5823 5821 5819 5816 5814
5847 5849 5851 5853 5852 5853 5855 5854 5855 5855 5855 5855 5855 5855 5854 5853 5853 5852 5851 5851 5850 5849 5848 5847 5846 5845 5844 5842 5840 5838 5836 5834 5832 5829 5827 5824 5821 5819 5817 5815 5813 5810 5808 5805
5838 5839 5841 5842 5843 5845 5847 5847 5846 5846 5846 5847 5847 5847 5846 5845 5845 5844 5844 5843 5842 5841 5840 5839 5838 5837 5836 5834 5832 5830 5828 5825 5823 5821 5818 5816 5814 5811 5808 5806 5804 5801 5799 5796
5830 5831 5834 5833 5835 5837 5837 5837 5838 5838 5838 5838 5838 5838 5838 5837 5837 5836 5835 5834 5833 5833 5832 5831 5830 5828 5827 5825 5823 5821 5819 5817 5814 5811 5809 5806 5805 5802 5800 5797 5795 5792 5789 5786
5821 5823 5823 5824 5825 5826 5827 5828 5828 5829 5829 5829 5829 5829 5829 5828 5828 5827 5826 5826 5825 5824 5823 5822 5821 5819 5818 5816 5814 5812 5810 5808 5805 5802 5800 5798 5796 5793 5790 5788 5785 5783 5780 5777
5811 5813 5814 5815 5815 5816 5817 5818 5819 5819 5820 5820 5819 5819 5819 5819 5818 5818 5817 5816 5815 5815 5813 5812 5811 5810 5808 5806 5805 5803 5801 5798 5795 5793 5791 5788 5786 5783 5781 5778 5775 5773 5770 5767
5801 5803 5804 5804 5805 5807 5807 5808 5809 5809 5810 5810 5810 5809 5809 5809 5808 5807 5807 5806 5806 5805 5804 5803 5801 5800 5799 5797 5795 5793 5791 5788 5786 5783 5781 5779 5776 5773 5771 5768 5765 5762 5760 5757
5792 5793 5794 5795 5795 5796 5797 5797 5798 5799 5799 5799 5799 5799 5799 5798 5798 5797 5797 5796 5795 5795 5794 5793 5792 5790 5789 5787 5785 5783 5781 5778 5776 5774 5771 5769 5766 5764 5761 5758 5755 5752 5749 5747
5783 5783 5784 5785 5785 5786 5786 5787 5787 5788 5788 5788 5789 5789 5788 5788 5787 5787 5786 5786 5785 5785 5784 5783 5782 5780 5779 5777 5775 5773 5771 5769 5767 5764 5761 5759 5756 5753 5751 5748 5745 5742 5739 5736
5773 5774 5775 5776 5776 5776 5776 5776 5776 5776 5777 5777 5777 5777 5777 5777 5776 5776 5776 5775 5775 5774 5774 5773 5772 5770 5768 5766 5765 5763 5761 5759 5756 5754 5751 5749 5746 5743 5740 5737 5735 5732 5729 5726
5764 5764 5765 5766 5766 5766 5765 5765 5765 5765 5766 5766 5766 5766 5766 5766 5766 5766 5765 5765 5765 5764 5764 5763 5761 5760 5758 5756 5754 5753 5751 5749 5746 5744 5741 5738 5735 5733 5730 5728 5725 5722 5719 5717
5755 5755 5756 5756 5756 5756 5755 5755 5755 5755 5755 5755 5756 5756 5756 5756 5756 5755 5755 5755 5754 5754 5753 5752 5751 5750 5748 5746 5745 5743 5741 5739 5736 5734 5731 5728 5726 5723 5721 5718 5715 5712 5710 5707
5746 5746 5747 5747 5747 5747 5747 5746 5746 5746 5746 5746 5746 5746 5746 5746 5746 5745 5745 5745 5745 5744 5743 5742 5741 5740 5738 5737 5735 5733 5731 5729 5726 5723 5721 5718 5715 5713 5711 5708 5705 5703 5700 5697
5738 5738 5738 5738 5738 5738 5738 5737 5737 5737 5737 5737 5737 5737 5737 5737 5736 5736 5736 5735 5735 5734 5733 5732 5731 5729 5728 5726 5724 5722 5720 5718 5715 5713 5710 5708 5705 5703 5701 5699 5696 5693 5691 5688
5729 5730 5730 5730 5730 5730 5729 5729 5728 5728 5728 5728 5728 5728 5727 5727 5727 5727 5727 5726 5726 5725 5724 5723 5721 5719 5718 5716 5714 5712 5710 5708 5705 5703 5701 5698 5696 5694 5692 5690 5687 5684 5682 5679
5721 5721 5721 5721 5721 5721 5721 5720 5720 5719 5719 5719 5719 5719 5719 5719 5718 5718 5718 5717 5716 5716 5715 5713 5712 5710 5708 5706 5704 5702 5700 5698 5696 5694 5691 5689 5687 5685 5683 5681 5678 5676 5673 5670
5714 5714 5714 5714 5713 5713 5713 5713 5712 5712 5712 5711 5711 5711 5711 5710 5710 5709 5709 5708 5708 5706 5705 5704 5703 5701 5700 5698 5696 5694 5692 5690 5687 5685 5683 5681 5679 5677 5674 5672 5670 5667 5664 5662
5707 5707 5707 5707 5707 5707 5706 5706 5705 5705 5704 5704 5704 5703 5703 5703 5702 5701 5700 5700 5699 5698 5697 5695 5694 5693 5691 5690 5688 5686 5684 5681 5679 5677 5674 5672 5670 5668 5666 5664 5661 5658 5656 5653
5701 5701 5700 5700 5700 5700 5699 5699 5698 5698 5697 5697 5697 5696 5696 5695 5694 5693 5693 5692 5691 5690 5689 5688 5686 5685 5684 5682 5680 5678 5676 5674 5672 5669 5667 5665 5663 5661 5658 5656 5653 5650 5648 5645
5694 5694 5694 5694 5693 5693 5692 5691 5691 5691 5690 5690 5690 5689 5689 5688 5687 5686 5685 5684 5683 5682 5681 5681 5679 5678 5676 5675 5673 5671 5669 5667 5665 5663 5660 5658 5656 5653 5651 5648 5646 5643 5640 5638
5688 5688 5689 5688 5688 5687 5686 5685 5684 5684 5684 5684 5683 5683 5682 5681 5680 5679 5678 5677 5676 5675 5674 5674 5672 5671 5670 5668 5666 5664 5663 5661 5659 5657 5654 5652 5650 5647 5644 5642 5639 5636 5633 5631
5684 5683 5683 5683 5682 5682 5681 5680 5679 5679 5679 5678 5678 5677 5676 5675 5674 5673 5672 5671 5670 5669 5668 5667 5666 5665 5663 5662 5660 5659 5657 5655 5653 5651 5649 5646 5644 5641 5638 5635 5632 5630 5627 5624
5679 5679 5679 5678 5678 5677 5676 5676 5675 5674 5674 5673 5672 5671 5670 5669 5668 5667 5666 5665 5664 5663 5662 5661 5660 5658 5657 5656 5655 5653 5652 5650 5648 5646 5643 5641 5638 5635 5633 5629 5627 5624 5621 5619